Regional Weather Roundup
Issued by NWS Wakefield, VA

Home | Current Version | Previous Version | Text Only | Print | Product List | Glossary On
Versions: 1 2 3 4 5 6 7 8 9 10 11 12 13 14 15 16 17 18 19 20 21 22 23 24 25 26 27 28 29 30 31 32 33 34 35 36 37 38 39 40 41 42 43 44 45 46 47 48 49 50
000
ASUS41 KAKQ 251115
RWRAKQ

REGIONAL WEATHER ROUNDUP
NATIONAL WEATHER SERVICE WAKEFIELD VA
700 AM EDT WED APR 25 2018

Note: "fair" indicates few or no clouds below 12,000 feet with no
significant weather and/or obstructions to visibility. * = Denotes
station may not report precipitation (e.g., rain,snow,etc.),
thunder or fog.

VAZ042-051-052>054-056-251200-
NORTHERN VIRGINIA

CITY           SKY/WX    TMP DP  RH WIND       PRES   REMARKS
WASH NATIONAL  DRIZZLE   57  55  93 N8        29.80S FOG
DULLES         DRIZZLE   53  53 100 N6        29.81S FOG
FORT BELVOIR   CLOUDY    56  56  97 CALM      29.79S
QUANTICO       LGT RAIN  57  57 100 N3        29.80S FOG
FREDERICKSBRG* DRIZZLE   55  55 100 NW3       29.78R
STAFFORD*      CLOUDY    56  56 100 N3        29.83R FOG
WARRENTON      DRIZZLE   55  51  89 N6        29.79S
CULPEPER*      LGT RAIN  54  52  94 N8        29.81S
MANASSAS*      LGT RAIN  53  53 100 N9        29.81S FOG
LEESBURG*      CLOUDY    50  50 100 N10       29.83S FOG
WINCHESTER     FOG       50  48  93 CALM      29.85S VSB 3/4
FRONT ROYAL*   CLOUDY    50  50 100 CALM      29.83R VSB 3/4
LURAY*         CLOUDY    52  50  93 N5        29.83R
$$

VAZ048-049-060>072-079>083-251200-
CENTRAL AND SOUTH CENTRAL VIRGINIA

CITY           SKY/WX    TMP DP  RH WIND       PRES   REMARKS
RICHMOND       LGT RAIN  59  59 100 E5        29.76R FOG
CHESTERFIELD*  LGT RAIN  59  59 100 E3        29.76R FOG
PETERSBURG*    LGT RAIN  61  59  94 E5        29.75S VSB 3/4
HANOVER        LGT RAIN  57  57 100 CALM      29.78R FOG
TAPPAHANNOCK*  MOCLDY    59  59 100 CALM      29.77S FOG
QUINTON*       CLOUDY    58  58 100 E8        29.75S FOG
CHARLOTTSVILLE RAIN      55  53  93 N3        29.79R FOG
GORDONSVILLE*  CLOUDY    53  53 100 N3        29.78S
ORANGE*        CLOUDY    52  50  93 N10       29.79S
LOUISA*        CLOUDY    52  52  99 N8        29.83R FOG
BUMPASS*       NOT AVBL
FARMVILLE*     CLOUDY   N/A N/A N/A N9        29.76R FOG
CREWE*         CLOUDY    55  55 100 NW3       29.76R
FORT PICKETT*  CLOUDY    56  56 100 N5        29.75R
CHASE CITY*    CLOUDY    56  56 100 N5        29.75R
CLARKSVILLE*   CLOUDY    59  59 100 E3        29.73S
SOUTH HILL*    CLOUDY    59  59 100 CALM      29.79S
LAWRENCEVILLE* CLOUDY    61  60  97 CALM      29.75R
EMPORIA*       CLOUDY    59  59 100 CALM      29.76R FOG
$$

VAZ088>098-251200-
SOUTHEAST VIRGINIA

CITY           SKY/WX    TMP DP  RH WIND       PRES   REMARKS
NORFOLK        CLOUDY    59  59 100 S7        29.75R FOG
VIRGINIA BEACH FOG       58  58 100 SE6       29.75R VSB 1
NORFOLK NAVAL  CLOUDY    59  58  96 S3        29.76S FOG
WEST POINT*    CLOUDY    58  57  96 CALM      29.77S
SALUDA*        CLOUDY    56  56 100 CALM      29.76R VSB<1/4
NEWPORT NEWS   FOG       57  56  96 E3        29.75S VSB 1/4
LANGLEY AFB    CLOUDY    56  56 100 CALM      29.75S FOG
FORT EUSTIS    CLOUDY    58  57  98 E3        29.73S FOG
WILLIAMSBURG*  CLOUDY    59  59 100 CALM      29.77R
HR EXEC AP*    FOG       59  59 100 CALM      29.76R VSB 1/4
FRANKLIN*      CLOUDY    60  59  97 S3        29.75S FOG
US460-WAKEFLD  FOG       60  60 100 CALM      29.75S VSB<1/4
$$

VAZ020-022-025-037-045-251200-
WEST CENTRAL AND SOUTHWEST VIRGINIA

CITY           SKY/WX    TMP DP  RH WIND       PRES   REMARKS
STAUNTON*      CLOUDY    49  49  98 N7        29.83R FOG
WAYNESBORO*    CLOUDY    49  49  99 CALM      29.82R
HOT SPRINGS VA DRZL/FOG  39  39 100 N6        29.81S VSB 1/4
LYNCHBURG      CLOUDY    53  52  96 N8        29.77R FOG
DANVILLE       CLOUDY    54  54 100 NE7       29.74R
SOUTH BOSTON*  CLOUDY    56  55  95 N5        29.75R
MARTINSVILLE   CLOUDY    53  52  96 N5        29.78R
ROANOKE        CLOUDY    54  50  86 N8        29.80R
BLACKSBURG     DRIZZLE   51  51  99 CALM      29.83R
DUBLIN*        CLOUDY    53  52  97 NW7       29.81S
MARION*        CLOUDY    53  53  99 W5        29.84R
HILLSVILLE*    LGT RAIN  50  49  97 NW9       29.79R
RICHLANDS*     HAZE      51  28  41 NW6       29.84R VSB 1/4
WISE*          CLOUDY    50  50 100 NW8       29.88R
ABINGDON*      CLOUDY    55  53  93 NW7       29.85R
$$

MDZ021>025-VAZ099-100-251200-
SOUTHERN MARYLAND AND THE DELMARVA PENINSULA

CITY           SKY/WX    TMP DP  RH WIND       PRES   REMARKS
PATUXENT RIVER NOT AVBL
BAY BRIDGE APT CLOUDY    59  57  94 SE6       29.80S FOG
LEONARDTOWN    CLOUDY    57  55  94 E6        29.79S
DOVER          CLOUDY    55  54  99 SE8       29.82S FOG
GEORGETOWN     CLOUDY    58  57  97 SE6       29.80R
EASTON         CLOUDY    59  57  94 E6        29.83F FOG
CAMBRIDGE      CLOUDY    59  59 100 E5        29.78F
SALISBURY      CLOUDY    58  58 100 NE6       29.77F
TANGIER        CLOUDY    57  57 100 E7        29.75F VSB 1/4
OCEAN CITY     FOG       53  53 100 SE8       29.79S VSB 1/4
WALLOPS ISLAND FOG       56  56 100 E5        29.77S VSB 1/4
ACCOMACK*      FOG       56  56  99 SE5       29.76S VSB 1/4
$$

NCZ012>017-030>032-251200-
NORTH CENTRAL AND EASTERN NORTH CAROLINA

CITY           SKY/WX    TMP DP  RH WIND       PRES   REMARKS
ROANOKE RAPIDS CLOUDY    59  59 100 CALM      29.75R
RALEIGH        CLOUDY    60  60 100 SW5       29.74R FOG
ELIZABETH CITY FAIR      62  61  96 S8        29.76R
AHOSKIE*       CLOUDY    58  58 100 CALM      29.75R FOG
EDENTON*       NOT AVBL
CURRITUCK*     NOT AVBL
KILL DEVIL HLS FAIR      59  59 100 CALM      29.76S FOG
MANTEO         FAIR      60  59  96 S5        29.77S
CAPE HATTERAS  FAIR      66  63  90 SW7       29.79R
TARBORO*       NOT AVBL
GOLDSBORO      FAIR      59  58  96 CALM      29.73R
WASHINGTON     CLOUDY    60  59  97 CALM      29.76R FOG
GREENVILLE     CLOUDY    61  61 100 S3        29.78R
NEW BERN       FAIR      58  58 100 S5        29.77R FOG
WILMINGTON     FAIR      60  57  89 S6        29.78R
$$

VAZ048-251200-
ELSEWHERE

CITY           SKY/WX    TMP DP  RH WIND       PRES   REMARKS
HARRISBURG PA  LGT RAIN  54  52  93 E3        29.84S
BALTIMORE      CLOUDY    56  56 100 NE8       29.80S FOG
ANNAPOLIS      CLOUDY    60  60 100 E3        29.79F
ANDREWS AFB    FOG       56  56 100 NE5       29.79R VSB 3/8
PHILADELPHIA   CLOUDY    55  54  96 E10       29.86S FOG
HENDERSON NC   CLOUDY    57  57  97 CALM      29.74R FOG
GREENSBORO     CLOUDY    54  54 100 N6        29.74R FOG
ROCKY MOUNT    CLOUDY    61  60  97 SW5       29.75R FOG
$$

VAZ100-251200-
MARINE

STATION/POSITION TIME  TEMP    WIND        PRES    WAVE   SWELL
                       AIR SEA DIR/SP/G            HT/PER HT/PER
                 (UTC) (F)     (DEG/KT/KT) (MB)    (FT/S) (FT/S)
BRANDYWINE LGT   1048   55     110/ 21/ 24 1009.2F
CAPE MAY NJ      1048   55 52  100/ 13/ 17 1008.8F
LEWES DE         1048   55 51  120/ 10/ 13 1008.7F
15NM E FENWICK I 1050   50 47  110/ 16/ 21 1009.0R  10/11   7/11
OCEAN-CITY-INLET 1048   53 50  100/  9/ 11 1008.7F
WACHAPREAGUE VA  1048   54 55   60/  3/  4 1007.9F
THOMAS POINT MD  1100   57 53   80/  7/  8 1009.9F
GOOSES REEF MD   1100   57     140/  6/  8 1009.0
COVE POINT MD    1048   57     140/  5/  8 1008.9F
SOLOMONS ISLAND  1048   57 54   80/  4/  5 1007.9R
BISHOPS HEAD MD  1048   58 57   80/  6/  8 1008.4F
PINEY POINT MD   1048          130/  4/  4   N/A
POTOMAC MD       1100   55 53  100/  4/  4 1009.1    1
CAMBRIDGE MD     1048   58 55              1009.2F
LEWISETTA VA     1048   55 55  130/  3/  4 1008.0F
RAPPAHANNOCK LGT 1048           90/  7/  8 1008.0F
YORK RVR RNG VA  1048   55     140/  1/  2 1008.0R
YORKTOWN VA      1048   56 56  100/  3/  5 1007.2R
DOMINION TERM VA 1048   56      10/  1/  4 1007.7R
KIPTOPEKE VA     1048      55   90/ 10/ 12   N/A
CAPE HENRY VA    1048   56     160/  6/ 10   N/A
WILLOUBY STN VA  1048   55      30/  2/  3 1007.5R
S CRANEY ISL VA  1048   58     160/  1/  3 1007.3R
CAPE HENRY BUOY  1100      53                N/A     7/11   3/11
64NM E OF VA BCH 1050   54 49  180/ 10/ 12 1008.6R  13/10  13/10
DUCK PIER NC     1048   53 50  160/  8/ 10 1007.5R
44100 DUCK FRF   1015      51                N/A     9/11   5/11
44056 DUCK FRF   1100      51                N/A     7/10   3/11
OREGON INLET NC  1036   60 54  160/  7/ 10 1008.1R
HATTERAS NC      1048   66 62  210/  9/ 12 1008.3R
DIAMOND SHLS NC  1100   70 70  230/ 16/ 23 1008.8
CAPE LOOKOUT NC  1100          210/  9/ 10 1008.8R
$$



USA.gov is the U.S. government's official web portal to all federal, state and local government web resources and services.